GFSSE_850_thetae_333.txt.gz
Theta_e
334 343 336 330 324 323 324 327 325 325 325 324 326 329 329 328 327 327 328 329 330 333 335 338 340 341 341 340 338 340 339 339 338 337 337 336 333 330 327 324 322 321 319
333 342 335 328 323 324 326 327 325 324 324 327 328 327 328 328 328 330 331 332 335 338 338 338 339 339 340 341 342 341 341 341 339 339 338 337 337 335 332 329 326 324 322
328 338 330 325 323 324 327 326 325 325 327 328 329 330 329 329 331 332 333 334 335 336 336 336 337 337 338 338 340 341 341 340 340 337 339 339 338 337 337 333 331 329 326
326 333 328 323 323 326 327 326 325 326 329 330 330 331 331 331 332 333 334 336 336 336 336 336 337 337 337 337 340 340 339 340 339 338 338 339 340 338 337 337 335 332 330
325 326 324 322 324 326 326 326 326 327 329 330 332 332 332 331 332 333 334 335 336 336 335 335 337 336 336 336 338 339 340 339 340 338 335 338 339 340 338 337 337 336 332
324 324 322 323 324 325 326 326 327 328 330 331 333 334 334 333 332 332 334 335 335 333 333 335 335 334 334 334 334 336 339 340 338 337 334 336 339 339 339 338 338 338 336
324 324 322 323 324 325 326 326 327 328 330 331 332 331 332 332 332 332 331 330 330 330 331 331 331 330 330 331 330 331 336 339 338 336 336 339 339 338 338 338 338 338 338
324 324 323 323 324 325 326 327 327 328 329 330 331 331 330 328 328 328 328 327 327 328 328 328 327 326 326 326 326 330 341 339 336 337 334 337 338 338 337 337 337 338 339
324 325 323 323 324 326 326 327 327 328 329 329 329 328 327 328 328 327 329 334 338 338 338 336 334 328 328 329 331 333 337 339 341 338 339 337 336 337 337 337 336 336 337
322 323 325 324 326 325 326 327 327 327 327 327 327 327 327 327 331 334 338 339 340 340 340 339 338 338 336 338 339 341 342 340 343 342 340 341 338 337 339 338 338 335 334
321 323 324 323 324 324 324 326 326 326 326 327 327 327 327 332 338 338 337 339 340 339 339 338 338 337 337 337 337 340 341 340 343 343 341 341 342 340 340 339 338 338 334
322 321 323 323 323 323 324 324 324 325 326 326 326 325 325 327 329 337 337 339 340 339 339 338 337 336 336 335 335 337 341 343 341 342 343 342 342 342 341 341 340 339 337
326 321 320 322 322 323 323 323 323 323 323 323 324 324 324 326 327 336 338 338 338 339 338 338 338 337 337 336 335 334 335 337 339 341 341 341 341 342 342 342 341 340 339
328 322 321 323 324 327 330 325 322 321 322 322 323 324 331 335 335 335 335 335 334 334 335 334 334 333 334 335 335 335 335 334 334 334 333 336 338 340 342 343 342 341 341
338 330 330 332 335 338 338 335 329 332 334 334 336 337 339 339 339 339 338 336 335 334 333 333 332 330 329 328 330 331 333 334 334 334 333 333 333 337 341 343 343 342 341
342 342 342 341 341 341 340 338 338 338 338 338 338 338 339 339 339 340 339 338 338 337 337 335 335 335 335 334 330 328 327 328 331 333 333 332 331 334 338 342 343 343 342
341 342 342 342 342 342 341 340 339 338 337 337 337 337 337 336 337 337 338 337 337 337 337 337 337 337 337 337 338 337 337 337 334 331 331 333 333 333 336 338 342 343 343
337 338 339 339 340 341 341 341 340 339 338 337 337 337 337 337 337 337 337 338 338 338 338 339 339 339 339 338 338 337 338 339 339 339 338 336 335 337 337 340 341 342 343
334 335 334 335 336 337 339 339 339 338 338 337 337 337 337 337 337 337 337 338 338 336 336 336 336 336 336 336 334 331 326 327 330 334 336 338 338 338 339 341 342 341 342
328 329 332 333 333 334 335 335 335 335 334 334 333 332 333 334 334 334 334 333 333 332 330 326 321 316 313 311 310 310 310 312 320 334 337 338 339 340 340 340 341 341 340
322 325 326 327 329 330 332 333 334 333 332 331 331 332 332 333 333 329 318 314 310 308 308 307 307 307 308 308 308 308 312 323 329 333 335 336 337 337 338 340 339 340 340
318 318 318 321 322 325 326 327 327 328 328 328 327 325 321 317 313 308 307 307 306 306 306 306 306 306 306 306 306 307 314 318 323 328 320 317 322 327 331 332 336 338 340
313 312 312 314 317 320 321 322 323 324 322 321 316 309 307 305 305 305 304 304 304 304 303 303 302 302 302 302 302 304 311 311 304 306 306 306 305 305 305 307 309 313 322
310 310 309 310 311 315 316 316 316 316 313 310 305 304 303 302 302 302 302 302 301 300 300 300 300 299 299 299 300 300 300 301 303 306 302 302 302 302 303 303 303 304 306
308 308 308 308 308 308 308 308 308 307 305 304 303 302 301 301 300 300 299 299 299 298 298 298 298 298 298 298 298 298 298 299 299 300 304 302 302 302 302 302 302 303 303
307 307 307 306 306 306 305 305 305 304 303 302 301 300 300 299 299 299 298 298 297 297 297 297 297 297 297 297 297 297 297 298 299 299 300 301 301 301 301 301 301 301 301

GFSSE_850_thetae_336.txt.gz
Theta_e
343 345 337 329 323 326 328 327 327 328 324 326 328 328 326 327 327 327 329 332 335 338 339 341 341 341 341 341 341 341 339 339 339 337 337 336 334 330 327 326 334 329 318
344 344 333 326 323 325 328 325 325 324 325 328 328 328 328 328 330 331 332 335 339 337 337 337 337 338 340 339 341 341 340 340 338 339 340 342 337 336 332 329 327 324 321
344 341 332 324 324 326 327 324 324 326 328 328 328 328 328 331 332 334 335 335 336 336 336 337 338 337 337 339 340 340 340 340 338 336 340 343 343 337 337 334 330 328 326
344 342 340 323 324 327 326 324 325 328 329 331 331 331 332 332 334 335 336 336 336 335 335 337 337 337 336 338 339 339 339 339 338 338 347 345 342 338 337 337 336 332 330
342 341 331 323 325 327 326 325 327 329 330 331 332 332 333 333 334 335 336 336 336 335 335 337 336 336 335 334 336 338 339 339 339 344 344 345 344 341 338 338 339 338 334
340 340 324 323 326 327 326 326 328 330 331 333 333 334 333 333 333 334 335 335 334 333 333 335 334 334 334 333 331 332 337 339 341 343 343 342 343 338 338 338 338 338 337
339 339 327 324 326 327 326 327 329 330 331 333 334 335 335 335 335 334 331 330 330 330 330 330 330 330 330 330 328 336 339 337 340 343 344 339 344 337 337 337 336 337 338
339 339 332 325 326 326 327 327 329 330 331 332 332 332 331 331 330 329 329 329 328 328 328 327 327 327 327 327 328 336 340 341 342 343 344 343 337 338 337 336 336 335 338
339 337 330 331 326 326 327 327 328 329 330 331 331 330 329 328 328 328 328 332 336 336 335 334 332 330 329 330 337 340 341 341 343 344 343 345 339 338 339 338 338 335 336
339 336 337 331 330 332 328 327 328 329 329 329 328 327 327 328 327 329 338 339 340 341 339 338 338 337 337 339 340 342 341 341 348 345 345 345 341 340 340 340 338 336 334
328 333 331 330 326 333 339 330 327 327 327 327 328 327 328 339 340 341 339 339 340 340 339 338 337 336 337 338 336 337 341 344 343 345 345 343 342 341 341 342 340 338 335
333 336 337 337 334 337 338 339 336 341 340 340 340 329 337 334 337 335 338 337 339 340 339 339 338 337 341 342 342 342 341 342 344 345 343 343 342 342 342 342 342 340 339
331 332 335 336 334 337 337 338 338 339 339 338 327 326 331 333 337 340 342 343 344 341 343 342 343 342 342 341 342 342 342 340 340 340 342 340 339 340 341 342 342 342 340
332 331 332 331 323 335 337 337 340 337 337 336 329 323 328 337 339 334 340 340 339 339 335 339 338 336 337 339 339 339 339 339 337 339 340 339 333 333 338 340 342 343 342
333 333 333 335 332 326 331 331 326 326 333 326 325 327 335 343 340 339 338 338 336 335 336 337 337 335 338 340 338 337 336 335 337 337 338 338 333 332 332 336 342 343 343
333 334 335 338 336 340 339 338 337 335 335 336 337 337 338 338 339 339 339 339 337 336 336 336 335 336 337 339 338 338 337 339 340 341 338 337 336 332 332 336 337 343 342
334 337 340 339 341 341 341 340 339 338 338 338 338 338 338 338 337 337 338 337 337 337 337 337 338 338 336 336 336 337 337 338 340 342 341 343 341 342 341 337 339 341 342
336 341 341 339 342 342 342 341 339 338 338 337 337 336 336 336 337 337 337 337 337 338 338 338 337 336 334 335 335 333 331 333 336 338 343 343 343 343 344 337 340 341 343
338 338 338 339 340 341 341 341 340 339 338 337 337 337 337 337 337 336 336 337 337 337 335 335 334 330 323 317 313 316 319 326 334 335 339 342 339 339 339 339 341 342 342
334 335 334 335 336 337 338 338 338 338 337 336 335 335 335 335 334 333 333 333 333 330 324 318 312 309 309 309 309 318 327 328 333 333 333 331 338 340 340 340 341 342 342
328 330 332 333 333 333 333 330 328 329 334 333 332 331 332 333 333 331 327 316 310 307 307 307 307 307 308 307 315 320 327 327 328 328 325 328 334 335 335 336 337 340 341
323 324 325 326 327 329 328 327 325 329 331 330 331 329 327 327 323 314 308 307 306 305 305 305 305 309 307 303 306 318 319 324 321 319 316 314 308 308 309 310 314 320 330
321 321 321 321 322 324 324 326 326 326 326 326 323 316 316 311 307 306 304 304 304 303 302 301 301 302 308 304 302 309 315 315 311 314 313 309 303 304 303 303 304 304 305
318 317 316 315 317 319 321 320 321 320 317 313 312 308 305 304 304 303 301 300 302 300 300 299 299 300 305 305 306 304 301 301 308 310 309 309 307 307 304 303 303 305 303
316 316 316 315 315 315 317 317 316 314 311 309 307 303 302 301 300 299 299 299 299 301 298 298 298 299 300 304 304 305 306 308 306 307 308 307 307 307 306 305 303 306 304
314 314 313 312 310 309 309 308 310 308 309 309 307 307 306 305 303 298 298 297 298 298 297 297 298 298 298 298 303 303 304 304 304 305 305 305 305 306 306 306 307 305 305

GFSSE_850_thetae_339.txt.gz
Theta_e
347 337 335 324 325 328 329 329 329 326 323 325 325 327 332 327 328 331 335 337 339 341 341 341 341 341 340 340 341 340 340 339 339 338 339 337 335 329 329 335 335 322 317
347 343 331 322 325 327 327 327 327 324 329 330 329 327 328 329 331 332 338 338 336 336 337 338 338 338 340 340 340 340 339 339 337 340 343 342 337 336 331 328 326 324 321
344 337 327 323 325 328 325 325 325 329 330 330 329 330 331 332 334 336 336 336 336 336 338 338 337 337 338 339 339 339 340 338 338 343 342 345 340 337 337 334 330 329 327
344 342 337 323 326 327 325 324 328 329 330 330 330 332 333 334 336 336 336 336 335 335 337 337 337 336 336 337 339 339 339 338 341 346 344 345 345 336 337 337 335 332 331
342 342 329 324 327 326 325 326 329 331 332 332 332 333 334 335 336 336 336 336 335 334 336 336 335 335 335 334 335 337 340 340 343 345 345 344 346 339 337 337 339 337 336
340 342 322 324 327 326 325 327 330 332 332 333 333 333 334 334 334 335 335 334 333 333 335 335 334 334 333 332 331 337 336 342 345 344 344 341 348 337 336 336 337 338 337
340 341 324 325 327 326 326 327 330 331 333 334 334 334 334 334 334 335 332 331 330 330 331 330 330 330 331 330 334 342 341 339 342 344 345 345 344 338 337 336 335 337 338
340 339 327 325 327 326 326 328 330 331 333 334 335 335 334 334 332 330 329 329 328 328 327 327 326 327 328 329 332 338 341 341 343 344 345 345 339 338 339 337 336 335 336
340 342 340 329 327 326 327 328 329 330 331 332 332 331 331 330 328 329 328 330 335 336 336 334 330 329 329 331 341 341 339 340 346 346 343 347 341 341 341 339 338 335 333
339 342 339 340 338 338 328 327 328 329 330 331 331 330 328 328 328 328 334 338 339 339 338 338 337 336 336 339 339 340 340 343 346 343 345 345 341 341 341 342 339 336 334
339 338 339 339 340 340 339 330 327 328 329 328 328 327 328 340 343 341 341 337 339 340 339 338 337 337 338 342 341 340 340 348 340 343 346 344 341 342 342 342 342 340 337
337 337 338 340 340 341 342 341 339 337 334 335 340 343 340 340 340 338 340 337 337 338 339 340 339 338 342 343 344 341 342 339 340 339 344 342 340 340 340 341 342 342 340
333 335 336 339 340 338 338 340 339 341 341 343 343 341 340 338 337 339 342 344 345 342 345 343 341 341 341 340 339 339 340 339 337 338 341 341 338 335 335 339 340 342 342
333 334 337 339 341 340 337 339 338 338 339 339 339 337 335 338 341 341 340 341 340 339 339 339 337 341 340 340 338 338 337 336 336 336 337 339 339 337 333 333 336 341 343
333 333 333 335 337 339 340 339 340 339 338 338 338 338 341 342 345 344 344 343 342 341 340 340 340 340 340 341 342 342 341 340 337 337 337 338 338 337 334 332 333 338 342
334 334 334 337 341 340 342 343 340 338 337 338 339 336 331 341 339 343 343 342 341 339 338 338 338 339 339 340 341 341 341 342 343 344 344 342 339 340 340 337 334 337 342
337 336 340 342 343 345 343 342 341 340 339 339 337 337 337 338 338 339 339 338 336 336 336 335 336 336 337 338 339 337 337 338 340 343 344 348 347 345 344 344 341 338 339
337 337 339 340 340 341 341 339 338 337 336 335 334 336 337 337 337 337 335 335 337 337 335 335 334 332 332 332 329 327 327 331 335 340 342 343 345 344 344 345 343 342 343
337 337 338 339 341 339 338 338 336 336 333 332 332 332 336 336 337 337 337 337 337 335 334 335 333 326 320 317 316 318 323 331 337 338 332 336 341 341 340 340 340 343 344
337 337 337 337 336 336 336 335 334 332 330 328 328 335 336 336 336 335 332 334 334 333 330 326 314 310 314 310 313 320 330 331 336 333 331 327 333 329 333 337 338 340 341
335 335 338 336 335 335 336 335 333 331 327 326 332 334 333 332 333 332 321 327 324 319 310 308 309 313 314 307 319 323 333 331 331 329 325 320 324 316 317 321 325 327 333
333 335 333 333 333 333 334 333 332 328 323 325 329 331 331 330 327 329 318 313 310 309 306 305 305 314 313 304 313 320 325 330 318 320 318 314 306 312 312 311 305 306 308
331 331 332 331 330 330 331 329 328 326 327 324 323 324 325 322 318 313 308 307 305 308 304 303 303 307 312 310 304 317 319 320 314 317 315 313 311 312 310 311 309 312 305
329 329 328 330 329 328 326 326 325 325 324 320 316 315 316 312 307 305 303 302 302 301 301 301 301 305 309 310 310 306 305 306 312 314 312 312 310 310 310 311 310 312 309
327 325 325 326 326 325 324 325 324 325 321 316 313 311 309 303 303 303 302 302 302 306 299 299 300 302 305 308 308 309 309 311 309 311 312 310 309 310 309 310 309 310 310
324 322 323 323 322 322 322 322 320 318 315 313 312 311 310 309 307 306 304 303 303 304 302 300 299 299 300 305 307 307 307 308 308 308 308 308 307 307 309 308 309 309 309

GFSSE_850_thetae_342.txt.gz
Theta_e
337 326 323 324 326 330 333 331 327 323 325 329 333 332 326 330 333 336 337 339 341 340 341 340 339 340 340 339 339 338 337 338 340 342 336 336 335 329 331 329 328 318 317
331 325 322 324 326 327 328 328 324 327 328 329 338 329 329 332 335 338 337 336 336 337 338 338 339 339 339 339 339 339 337 337 338 340 343 337 335 337 330 327 324 323 320
328 323 322 324 326 326 327 325 327 333 340 339 339 331 331 334 337 336 336 335 337 337 337 337 337 338 339 339 339 338 337 339 344 343 345 346 337 334 337 332 329 328 326
327 323 323 325 326 325 324 325 329 340 340 340 335 333 334 335 336 336 336 335 335 337 337 337 336 336 337 338 339 339 338 343 345 346 345 345 342 336 334 337 334 332 331
342 332 323 325 326 324 324 328 337 340 340 332 333 334 335 335 336 336 335 335 334 335 336 336 335 335 334 333 337 337 341 342 344 345 346 345 346 337 334 335 338 336 335
344 331 324 326 325 324 326 330 341 341 339 332 333 333 334 334 334 334 334 334 333 334 334 333 333 333 332 333 338 337 339 344 344 345 344 342 343 338 336 333 336 338 337
345 326 324 326 325 325 327 330 340 342 342 333 333 333 333 333 333 334 332 331 330 329 329 328 329 329 330 332 339 341 339 342 343 344 344 342 341 339 338 336 333 336 338
342 331 324 326 326 325 326 329 331 332 333 333 333 333 333 334 333 330 329 328 327 327 328 327 326 326 329 332 340 337 338 341 344 345 345 346 341 341 340 337 337 333 333
341 332 324 325 326 325 326 329 330 331 333 334 334 333 332 330 328 328 327 329 333 334 335 333 332 330 328 335 340 338 337 344 338 339 346 346 339 340 342 340 337 332 332
342 340 332 325 325 325 326 327 329 330 331 331 331 330 328 328 328 332 331 336 337 337 337 337 336 333 338 340 338 335 342 342 342 346 348 344 338 340 342 342 341 338 333
343 340 340 339 331 334 327 327 328 329 329 330 329 328 328 343 342 343 344 334 332 335 336 337 335 335 339 344 343 340 342 343 343 342 343 346 339 335 340 341 342 342 339
339 338 340 339 339 340 341 333 327 327 327 328 332 341 331 341 344 346 337 342 342 339 341 341 340 340 344 343 343 342 341 340 339 344 344 343 340 337 337 338 340 342 342
338 338 338 341 339 340 343 341 334 340 337 343 344 344 339 341 339 338 341 342 343 340 343 342 339 343 342 335 338 337 339 339 338 338 340 338 339 339 336 333 336 340 342
336 336 338 340 338 339 338 340 340 342 340 342 341 337 335 331 338 339 341 343 343 342 340 340 339 340 338 340 340 339 338 337 336 337 337 339 339 338 336 333 332 334 340
335 336 338 340 339 342 341 339 339 339 340 340 341 339 341 342 344 345 344 341 341 341 340 340 340 340 336 340 342 343 343 342 340 341 339 341 341 340 338 336 332 333 336
334 335 336 338 337 341 340 340 340 340 339 339 339 339 331 341 344 341 343 343 343 341 339 338 339 338 339 339 340 342 341 340 342 343 345 346 344 345 341 341 341 335 337
334 334 335 337 340 340 342 344 341 340 339 340 339 335 334 334 335 339 342 342 339 336 336 336 335 334 335 336 337 339 337 337 339 341 344 345 346 346 344 344 344 343 339
336 336 337 342 344 345 344 342 342 341 340 340 337 335 336 337 338 338 337 336 335 336 336 336 334 334 335 334 334 331 325 328 333 338 341 343 342 342 343 344 343 343 342
339 339 341 341 341 343 341 340 339 339 337 335 334 333 335 336 336 336 335 336 336 335 333 334 334 334 329 324 316 317 321 329 338 338 335 331 336 338 338 339 338 338 340
339 339 339 341 340 339 339 339 338 336 334 333 331 334 334 335 336 336 336 335 334 333 331 333 329 318 312 312 310 321 326 334 335 334 331 327 328 325 331 331 334 336 337
339 338 339 339 339 339 339 337 335 334 331 330 331 333 335 335 335 333 333 333 333 332 326 312 309 316 312 308 321 323 331 329 331 327 325 322 318 314 312 308 309 315 318
338 338 338 339 338 338 337 337 335 332 329 326 329 331 332 332 332 332 331 331 326 323 312 307 312 316 314 305 311 323 334 332 323 323 317 310 309 312 310 308 307 306 316
337 337 337 338 337 335 335 335 333 331 328 327 327 325 328 328 327 325 322 319 310 309 308 305 305 314 312 309 310 321 321 322 317 318 314 311 311 311 310 312 309 309 308
334 335 335 335 334 333 333 332 332 330 328 323 319 319 323 318 314 309 307 306 305 305 303 302 303 309 311 310 309 306 309 312 314 319 312 311 311 310 309 311 311 311 309
333 333 331 332 330 329 330 328 327 327 326 321 317 318 315 308 307 306 304 304 303 302 301 301 303 307 309 309 309 310 312 311 308 311 312 310 309 309 309 309 310 310 310
331 329 328 329 328 326 325 326 325 326 322 317 316 311 311 309 306 306 304 303 302 302 301 300 300 302 306 307 307 308 308 309 308 308 308 308 307 307 310 309 309 308 308

GFSSE_850_thetae_345.txt.gz
Theta_e
327 321 323 324 327 329 329 325 324 328 330 331 326 329 330 331 333 336 339 339 340 340 339 339 339 339 338 338 336 337 338 341 341 335 334 335 334 329 327 323 319 317 316
323 321 323 324 326 327 327 323 325 325 330 328 327 331 334 337 338 337 336 336 338 338 338 338 338 339 338 338 337 336 338 338 342 341 337 336 335 335 330 327 324 322 319
321 321 324 325 325 326 325 326 328 327 331 329 329 331 335 336 336 335 336 337 337 337 337 337 338 339 339 338 337 336 341 341 344 344 343 339 336 335 336 330 329 328 325
321 322 324 325 325 325 324 330 336 334 334 330 330 332 336 335 335 335 335 336 337 337 336 336 336 336 337 339 337 341 344 345 346 343 344 341 339 334 333 336 333 332 330
321 322 324 325 324 324 327 332 337 336 332 331 332 333 334 335 335 335 334 334 335 336 335 335 335 334 335 336 338 340 342 344 345 346 344 343 343 336 332 334 337 335 334
321 323 325 324 323 324 328 332 337 332 330 331 332 333 334 334 334 333 333 333 333 333 333 332 333 333 336 340 337 339 343 344 345 344 342 342 339 338 336 330 334 337 336
323 324 325 324 324 326 328 335 337 332 330 331 331 332 333 332 333 333 330 329 328 327 327 327 328 331 333 337 340 339 341 343 343 344 344 340 340 339 337 335 330 334 337
324 324 324 324 324 326 328 332 334 334 330 330 331 331 331 332 331 328 327 326 327 329 329 326 325 327 332 339 336 337 340 340 343 345 344 343 339 340 339 337 331 330 330
325 324 324 324 324 326 327 329 330 330 331 331 331 332 332 329 327 326 327 332 333 335 334 334 330 328 337 338 337 337 338 342 337 342 343 344 339 340 341 341 336 331 329
337 324 324 325 324 325 327 328 330 331 332 332 332 330 327 329 330 339 332 333 334 335 335 335 333 337 340 341 338 340 341 344 341 343 345 341 338 338 339 341 341 338 334
337 324 325 325 324 325 326 328 328 329 329 329 328 327 340 343 341 343 336 339 335 334 336 335 334 338 343 343 344 343 342 343 343 341 343 341 340 338 337 338 341 341 339
341 332 326 325 325 325 326 326 328 328 328 328 327 326 340 341 342 336 336 342 340 339 343 337 339 341 343 340 340 338 339 338 337 344 343 341 340 338 335 334 338 341 341
340 339 337 334 335 337 337 333 326 326 328 335 339 331 340 341 340 338 338 341 341 342 340 338 341 342 342 341 335 340 338 338 338 342 341 341 339 338 337 336 333 337 341
337 340 338 340 341 339 343 335 327 338 338 338 340 338 335 340 338 340 342 344 344 341 341 340 340 340 340 338 339 342 339 336 338 343 341 341 339 339 338 337 334 332 336
337 338 340 341 339 340 338 339 340 342 340 341 342 340 333 334 343 340 343 343 343 342 340 339 336 337 334 332 341 341 342 340 341 343 344 344 344 343 342 339 338 334 333
336 338 338 338 341 342 341 339 340 340 341 341 341 340 336 337 343 345 343 341 341 337 338 335 334 333 333 332 337 340 341 341 341 341 343 344 345 345 344 342 341 342 336
335 335 337 339 339 341 340 339 340 339 340 339 340 339 338 335 341 345 343 338 338 338 336 334 334 335 334 331 333 337 339 338 336 339 341 342 343 343 342 342 343 343 342
335 336 338 337 335 341 341 340 340 340 339 339 338 338 336 330 333 336 337 337 340 337 335 335 336 335 333 333 335 335 335 328 331 335 339 340 340 340 338 338 339 340 341
333 334 336 338 336 338 339 344 341 340 339 339 338 336 331 334 336 337 337 337 335 335 335 336 335 333 332 334 329 318 321 324 329 332 336 336 332 335 334 333 334 335 337
334 334 337 343 343 341 341 342 341 341 340 339 338 334 334 335 335 336 336 335 336 336 335 335 335 334 326 315 312 323 330 331 335 334 332 326 325 325 326 322 327 332 333
336 336 338 341 342 341 340 340 339 339 338 336 335 334 334 335 334 335 335 335 335 334 334 333 329 319 316 310 316 328 334 333 332 329 326 320 314 315 309 308 307 309 314
338 338 338 341 340 338 337 338 338 337 335 334 334 333 333 333 333 333 332 332 333 332 330 319 311 313 313 308 320 330 331 327 325 324 317 309 307 309 308 309 308 309 311
340 339 337 339 340 339 338 338 335 334 332 331 332 329 329 330 329 330 329 326 327 324 314 307 308 313 312 307 311 326 331 328 322 316 311 311 310 310 309 308 308 309 308
339 339 338 337 336 337 337 337 336 334 331 329 327 327 326 325 324 320 317 314 311 309 307 304 306 311 310 309 307 313 314 318 318 312 311 311 310 308 309 309 310 309 308
339 337 337 338 336 336 335 335 334 331 328 327 323 322 320 318 316 312 307 305 304 303 303 302 305 308 309 309 308 309 310 309 314 313 309 309 308 308 309 309 309 309 308
337 336 336 335 333 333 330 330 330 328 326 322 320 321 314 307 306 306 305 304 304 303 301 301 303 306 307 308 308 309 310 309 308 310 308 307 307 307 310 309 308 307 307

GFSSE_850_thetae_348.txt.gz
Theta_e
324 324 329 332 329 328 323 325 327 328 325 325 328 328 328 329 333 336 336 338 339 339 339 339 338 338 337 337 337 339 340 335 334 334 334 332 329 326 322 319 317 317 318
322 323 327 329 328 325 323 326 328 329 325 329 329 330 331 334 337 337 338 338 338 338 337 339 338 338 338 336 337 337 341 341 339 337 336 334 334 331 327 323 321 319 317
321 323 326 326 326 323 324 325 328 327 327 330 332 336 336 335 335 336 337 337 337 336 337 338 339 338 337 336 337 339 342 344 343 341 339 336 333 334 331 328 327 325 322
321 324 325 325 325 323 326 325 327 326 328 331 334 335 334 334 335 336 336 336 336 336 336 336 336 337 337 337 342 343 344 345 343 342 340 339 335 332 335 333 331 329 328
321 324 324 325 323 325 327 327 327 327 328 330 335 334 334 334 334 334 335 336 335 335 335 335 335 336 336 338 341 343 344 344 343 340 341 340 337 333 331 336 335 333 331
322 324 324 324 323 326 327 327 327 328 329 331 333 333 334 334 333 333 334 334 334 332 332 333 335 338 337 337 340 342 342 343 344 341 341 340 338 336 333 331 335 335 333
322 324 324 323 324 326 327 327 328 329 329 331 332 333 333 332 332 331 329 328 327 327 328 329 333 334 338 339 340 340 341 342 343 342 341 339 339 337 335 330 328 334 334
323 324 323 323 325 327 329 328 327 329 330 330 331 331 331 332 329 327 325 326 328 328 326 325 329 333 339 338 338 339 341 341 341 344 343 341 340 340 338 334 329 327 333
323 324 323 323 325 327 329 329 329 329 329 330 330 330 331 327 326 325 330 332 334 334 334 330 328 336 339 338 338 338 339 340 339 342 342 342 339 340 341 340 336 330 327
323 324 323 323 325 327 327 328 329 329 329 329 330 330 326 326 334 329 332 333 334 334 335 335 336 340 342 343 343 342 342 342 343 341 342 341 340 340 340 341 341 338 332
323 324 323 323 325 326 327 328 330 330 331 331 329 328 338 337 338 337 339 334 335 336 337 338 337 341 343 340 339 339 340 338 335 342 342 340 340 340 340 340 340 341 338
327 324 324 324 324 326 327 328 329 330 329 328 327 340 340 338 338 337 340 341 339 341 338 338 339 341 342 340 338 339 338 337 340 343 343 341 339 337 338 338 339 340 340
331 323 324 324 324 325 326 327 328 328 327 327 326 337 340 339 338 337 338 341 341 342 339 337 338 339 342 340 336 338 340 338 337 341 341 339 339 338 337 336 335 335 339
335 323 324 324 324 325 325 326 327 327 326 326 325 329 340 339 338 338 340 342 344 343 339 337 336 336 337 339 337 337 339 338 338 339 340 340 340 338 338 337 337 334 334
340 329 328 326 330 335 340 333 326 327 333 335 337 335 337 339 338 339 341 343 343 341 340 338 338 338 338 337 337 340 340 339 339 340 342 343 342 343 342 342 339 338 335
337 338 337 338 339 339 341 338 335 340 341 342 342 340 331 335 337 341 343 342 342 342 341 340 339 336 333 333 335 339 340 340 339 340 342 343 344 344 343 342 342 342 342
337 338 338 339 340 341 341 339 340 340 341 342 342 342 339 333 340 344 343 343 342 341 340 336 334 332 332 333 333 337 337 338 339 338 340 341 341 341 340 339 339 341 343
337 338 338 340 341 341 341 340 340 340 341 342 343 341 339 338 336 341 343 344 343 339 335 334 333 334 334 334 332 334 334 331 332 335 338 339 339 339 338 336 336 337 340
334 336 337 339 339 341 341 340 340 340 340 340 339 339 339 338 334 333 334 334 336 336 336 334 335 335 334 333 333 329 321 326 328 331 334 335 334 333 332 334 332 333 336
334 336 337 337 338 340 340 341 340 340 339 339 339 338 338 337 332 334 334 336 336 335 335 335 335 335 334 333 324 317 321 335 336 336 335 331 323 323 321 324 329 331 331
336 336 337 339 337 336 340 341 341 340 339 339 338 337 336 333 334 335 335 335 335 335 335 334 334 331 326 320 313 327 334 334 332 330 326 320 313 312 308 307 308 312 320
335 336 336 337 337 336 337 340 342 342 340 338 338 337 334 334 334 334 334 334 334 334 334 332 329 321 316 312 328 332 331 326 325 322 317 310 310 310 308 308 308 308 308
334 335 334 337 342 340 342 338 339 340 339 337 336 334 334 333 333 333 332 331 331 330 329 324 314 313 313 309 322 330 327 325 318 311 311 310 310 309 309 308 309 308 307
336 335 337 340 342 342 342 341 339 338 337 336 335 333 330 330 330 329 329 327 325 320 315 310 307 312 312 308 312 326 329 328 320 311 311 311 309 309 309 309 309 308 307
338 338 338 339 340 340 339 338 338 337 336 334 331 329 327 327 323 321 318 316 311 307 306 304 306 309 310 309 308 316 318 323 320 313 310 309 310 310 311 310 309 308 308
339 338 339 338 338 337 336 337 337 335 333 329 326 324 323 321 317 313 310 307 305 304 303 303 306 308 309 309 308 310 310 313 315 311 309 307 310 310 310 309 308 307 307